CW2303 Weather Reports


time (UTC)temp
C
wind
direction
speed
KPH
gust
KPH
rain 1hr
cm
rain 24hr
cm
rain mn
cm
humidity
%
barometer
mb
20260906165044 35 257 1.6 11.3 0.00 0.25 0.00 48 1016.7
20260906164600 35 17 3.2 11.3 0.00 0.25 0.00 47 1016.7
20260906164044 35 350 0.0 6.4 0.00 0.25 0.00 47 1016.7
20260906163547 35 337 1.6 6.4 0.00 0.25 0.00 49 1016.7
20260906163106 35 339 1.6 6.4 0.00 0.25 0.00 49 1016.9
20260906162544 35 346 0.0 6.4 0.00 0.25 0.00 49 1016.8
20260906162043 35 160 1.6 8.0 0.00 0.25 0.00 49 1016.8
20260906161607 34 313 0.0 8.0 0.00 0.25 0.00 49 1016.8
20260906161043 34 344 1.6 6.4 0.00 0.25 0.00 52 1016.8
20260906160543 34 113 0.0 6.4 0.00 0.25 0.00 50 1016.9
20260906160106 33 352 1.6 6.4 0.00 0.25 0.00 50 1016.8
20260906155543 33 130 3.2 8.0 0.00 0.25 0.00 51 1016.8
20260906155043 33 146 0.0 9.7 0.00 0.25 0.00 53 1016.8
20260906154604 33 139 0.0 9.7 0.00 0.25 0.00 54 1016.8
20260906154044 33 167 1.6 6.4 0.00 0.25 0.00 55 1016.8
20260906153547 33 159 3.2 6.4 0.00 0.25 0.00 53 1016.7
20260906153127 33 150 0.0 11.3 0.00 0.25 0.00 55 1016.7
20260906152544 33 144 1.6 11.3 0.00 0.25 0.00 55 1016.8
20260906152043 32 180 1.6 11.3 0.00 0.25 0.00 55 1016.6
20260906151604 32 126 0.0 4.8 0.00 0.25 0.00 56 1016.7
20260906151046 32 141 1.6 8.0 0.00 0.25 0.00 57 1016.7
20260906150724 32 0 0.0 8.0 0.00 0.25 0.00 57 1016.6
20260906150106 32 0 0.0 1.6 0.00 0.25 0.00 58 1016.7
20260906145547 32 0 0.0 1.6 0.00 0.25 0.00 58 1016.6
20260906145050 32 0 0.0 4.8 0.00 0.25 0.00 59 1016.6
20260906144606 31 148 0.0 4.8 0.00 0.25 0.00 61 1016.6
20260906144043 31 153 1.6 4.8 0.00 0.25 0.00 61 1016.6
20260906143543 31 0 0.0 3.2 0.00 0.25 0.00 62 1016.6
20260906143107 31 0 0.0 3.2 0.00 0.25 0.00 61 1016.6
20260906142543 30 157 0.0 1.6 0.00 0.25 0.00 64 1016.6
20260906142043 30 0 0.0 1.6 0.00 0.25 0.00 65 1016.6
20260906141616 30 0 0.0 4.8 0.00 0.25 0.00 67 1016.6
20260906141043 29 137 0.0 4.8 0.00 0.25 0.00 66 1016.5
20260906140543 28 82 0.0 3.2 0.00 0.25 0.00 67 1016.5
20260906140110 28 150 0.0 3.2 0.00 0.25 0.00 68 1016.5
20260906135543 28 0 0.0 1.6 0.00 0.25 0.00 70 1016.4
20260906135043 27 141 0.0 0.0 0.00 0.25 0.00 72 1016.4
20260906134624 27 0 0.0 0.0 0.00 0.25 0.00 73 1016.4
20260906134046 26 0 0.0 0.0 0.00 0.25 0.00 74 1016.3
20260906133542 26 0 0.0 1.6 0.00 0.25 0.00 76 1016.4
20260906133103 25 0 0.0 4.8 0.00 0.25 0.00 76 1016.3
20260906132543 25 130 0.0 4.8 0.00 0.25 0.00 76 1016.3
20260906132043 25 0 0.0 3.2 0.00 0.25 0.00 77 1016.3
20260906131603 25 0 0.0 3.2 0.00 0.25 0.00 78 1016.3
20260906131043 24 127 0.0 3.2 0.00 0.25 0.00 78 1016.3
20260906130543 24 0 0.0 1.6 0.00 0.25 0.00 79 1016.2
20260906130108 23 0 0.0 1.6 0.00 0.25 0.00 79 1016.2
20260906125545 23 0 0.0 1.6 0.00 0.25 0.00 79 1016.2
20260906125043 23 0 0.0 1.6 0.00 0.25 0.00 79 1016.2
20260906124609 23 0 0.0 1.6 0.00 0.25 0.00 80 1016.2
20260906124044 23 0 0.0 1.6 0.00 0.25 0.00 79 1016.1
20260906123542 23 12 0.0 3.2 0.00 0.25 0.00 80 1016.0
20260906123113 23 231 0.0 3.2 0.00 0.25 0.00 80 1015.8
20260906122544 23 53 0.0 1.6 0.00 0.25 0.00 80 1015.8
20260906122044 23 0 0.0 1.6 0.00 0.25 0.00 80 1015.7
20260906121606 23 0 0.0 1.6 0.00 0.25 0.00 81 1015.7
20260906121046 22 0 0.0 1.6 0.00 0.25 0.00 81 1015.7
20260906120544 22 0 0.0 0.0 0.00 0.25 0.00 81 1015.7
20260906120108 22 0 0.0 0.0 0.00 0.25 0.00 81 1015.6
20260906115546 22 0 0.0 0.0 0.00 0.25 0.00 81 1015.5
20260906115043 22 0 0.0 0.0 0.00 0.25 0.00 81 1015.5
20260906114629 22 0 0.0 0.0 0.00 0.25 0.00 81 1015.5
20260906114043 22 0 0.0 0.0 0.00 0.25 0.00 81 1015.4
20260906113543 22 0 0.0 0.0 0.00 0.25 0.00 82 1015.3
20260906113103 22 0 0.0 0.0 0.00 0.25 0.00 81 1015.2
20260906112543 22 0 0.0 0.0 0.00 0.25 0.00 81 1015.3
20260906112044 22 0 0.0 0.0 0.00 0.25 0.00 81 1015.2
20260906111625 22 0 0.0 0.0 0.00 0.25 0.00 81 1015.2
20260906111046 22 0 0.0 0.0 0.00 0.25 0.00 82 1015.1
20260906110544 22 0 0.0 0.0 0.00 0.25 0.00 82 1015.2
20260906110057 22 0 0.0 0.0 0.00 0.25 0.00 83 1015.2
20260906105543 22 0 0.0 0.0 0.00 0.25 0.00 83 1015.3
20260906105044 22 0 0.0 0.0 0.00 0.25 0.00 83 1015.2
20260906104608 22 0 0.0 0.0 0.00 0.25 0.00 83 1015.4
20260906104043 22 0 0.0 0.0 0.00 0.25 0.00 82 1015.2
20260906103543 22 0 0.0 0.0 0.00 0.25 0.00 81 1015.2
20260906103100 22 0 0.0 0.0 0.00 0.25 0.00 81 1015.2
20260906102544 22 0 0.0 0.0 0.00 0.25 0.00 81 1015.3
20260906102045 22 0 0.0 0.0 0.00 0.25 0.00 80 1015.2
20260906101600 22 0 0.0 0.0 0.00 0.25 0.00 80 1015.2
20260906101045 22 0 0.0 0.0 0.00 0.25 0.00 80 1015.2
20260906100545 22 0 0.0 0.0 0.00 0.25 0.00 80 1015.2
20260906100058 22 0 0.0 0.0 0.00 0.25 0.00 80 1015.1
20260906095545 22 0 0.0 0.0 0.00 0.25 0.00 80 1015.1
20260906095044 22 0 0.0 0.0 0.00 0.25 0.00 80 1015.0
20260906094602 22 0 0.0 0.0 0.00 0.25 0.00 80 1015.0
20260906094045 22 0 0.0 0.0 0.00 0.25 0.00 80 1014.9
20260906093544 22 0 0.0 0.0 0.00 0.25 0.00 80 1014.9
20260906093106 22 0 0.0 0.0 0.00 0.25 0.00 80 1014.9
20260906092543 22 0 0.0 0.0 0.00 0.25 0.00 79 1014.8
20260906092044 22 0 0.0 0.0 0.00 0.25 0.00 79 1014.7
20260906091600 22 0 0.0 0.0 0.00 0.25 0.00 78 1014.6
20260906091044 23 0 0.0 0.0 0.00 0.25 0.00 78 1014.6
20260906090543 23 0 0.0 0.0 0.00 0.25 0.00 78 1014.6
20260906090116 23 0 0.0 0.0 0.00 0.25 0.00 78 1014.6
20260906085544 23 0 0.0 0.0 0.00 0.25 0.00 78 1014.6
20260906085041 23 0 0.0 0.0 0.00 0.25 0.00 78 1014.6
20260906084611 23 0 0.0 0.0 0.00 0.25 0.00 77 1014.7
20260906084042 23 0 0.0 0.0 0.00 0.25 0.00 76 1014.6
20260906083544 23 0 0.0 0.0 0.00 0.25 0.00 75 1014.7
20260906083100 24 0 0.0 0.0 0.00 0.25 0.00 74 1014.7
20260906082541 24 0 0.0 0.0 0.00 0.25 0.00 73 1014.6
20260906082044 24 0 0.0 0.0 0.00 0.25 0.00 72 1014.6
20260906081601 24 0 0.0 0.0 0.00 0.25 0.00 72 1014.5
20260906081041 24 0 0.0 0.0 0.00 0.25 0.00 72 1014.6
20260906080542 25 0 0.0 0.0 0.00 0.25 0.00 71 1014.5
20260906075541 24 0 0.0 0.0 0.00 0.25 0.00 72 1014.6
20260906075041 24 0 0.0 0.0 0.00 0.25 0.00 71 1014.6
20260906074612 25 0 0.0 0.0 0.00 0.25 0.00 71 1014.7
20260906074041 25 0 0.0 0.0 0.00 0.25 0.00 71 1014.6
20260906073544 25 0 0.0 0.0 0.00 0.25 0.00 71 1014.7
20260906073107 25 0 0.0 0.0 0.00 0.25 0.00 71 1014.7
20260906072547 25 0 0.0 0.0 0.00 0.25 0.00 70 1014.8
20260906072041 25 0 0.0 0.0 0.00 0.25 0.00 70 1014.8
20260906071558 25 0 0.0 0.0 0.00 0.25 0.00 70 1014.8
20260906071042 25 0 0.0 0.0 0.00 0.25 0.00 71 1014.8
20260906070542 25 0 0.0 0.0 0.00 0.25 0.00 70 1014.9
20260906070138 25 0 0.0 0.0 0.00 0.25 0.00 70 1014.9
20260906065543 25 0 0.0 1.6 0.00 0.25 0.00 69 1014.9
20260906065041 26 0 0.0 1.6 0.00 0.25 0.00 68 1015.0
20260906064601 26 0 0.0 3.2 0.00 0.25 0.00 68 1015.0
20260906064041 26 0 0.0 3.2 0.00 0.25 0.00 68 1015.1
20260906063541 26 30 0.0 3.2 0.00 0.25 0.00 68 1015.1
20260906063104 26 26 0.0 1.6 0.00 0.25 0.00 68 1015.1
20260906062541 26 36 0.0 1.6 0.00 0.25 0.00 69 1015.2
20260906062042 26 0 0.0 1.6 0.00 0.25 0.00 69 1015.3
20260906061634 26 0 0.0 1.6 0.00 0.25 0.00 69 1015.2
20260906061041 26 0 0.0 1.6 0.00 0.25 0.00 68 1015.2
20260906060541 26 0 0.0 1.6 0.00 0.25 0.00 69 1015.2
20260906060059 26 0 0.0 1.6 0.00 0.25 0.00 68 1015.2
20260906055541 26 0 0.0 1.6 0.00 0.25 0.00 69 1015.3
20260906055042 26 0 0.0 1.6 0.00 0.25 0.00 69 1015.2
20260906054604 26 0 0.0 0.0 0.00 0.25 0.00 69 1015.2
20260906054046 26 0 0.0 0.0 0.00 0.25 0.00 69 1015.2
20260906053545 25 0 0.0 0.0 0.00 0.25 0.00 70 1015.1
20260906053105 25 0 0.0 0.0 0.00 0.25 0.00 70 1015.1
20260906052546 25 0 0.0 0.0 0.00 0.25 0.00 70 1015.0
20260906052046 25 0 0.0 0.0 0.00 0.25 0.00 71 1015.1
20260906051606 25 0 0.0 0.0 0.00 0.25 0.00 70 1015.0
20260906051045 25 0 0.0 0.0 0.00 0.25 0.00 70 1014.9
20260906050545 25 0 0.0 0.0 0.00 0.25 0.00 71 1015.0
20260906050116 25 0 0.0 0.0 0.00 0.25 0.00 72 1015.0
20260906045544 25 0 0.0 0.0 0.00 0.25 0.25 72 1015.0
20260906045045 25 0 0.0 0.0 0.00 0.25 0.25 72 1014.9
20260906044603 25 0 0.0 0.0 0.00 0.25 0.25 72 1014.9
20260906044045 25 0 0.0 0.0 0.00 0.25 0.25 73 1014.9
20260906043545 25 0 0.0 0.0 0.00 0.25 0.25 73 1015.0
20260906043112 25 0 0.0 0.0 0.00 0.25 0.25 72 1015.1
20260906042545 25 0 0.0 0.0 0.00 0.25 0.25 72 1015.1
20260906042046 25 0 0.0 0.0 0.00 0.25 0.25 72 1015.1
20260906041608 25 0 0.0 0.0 0.00 0.25 0.25 73 1015.2
20260906041046 25 0 0.0 0.0 0.00 0.25 0.25 70 1015.1
20260906040545 25 0 0.0 0.0 0.00 0.25 0.25 70 1015.0
20260906040120 25 0 0.0 0.0 0.00 0.25 0.25 70 1015.0
20260906035545 25 0 0.0 0.0 0.00 0.25 0.25 70 1015.0
20260906035047 25 0 0.0 0.0 0.00 0.25 0.25 69 1014.9
20260906034607 25 0 0.0 0.0 0.00 0.25 0.25 69 1015.0
20260906034045 25 0 0.0 0.0 0.00 0.25 0.25 68 1015.1
20260906033545 25 0 0.0 0.0 0.00 0.25 0.25 68 1014.9
20260906033101 25 0 0.0 0.0 0.00 0.25 0.25 68 1014.9
20260906032548 25 0 0.0 0.0 0.00 0.25 0.25 69 1014.9
20260906032045 25 0 0.0 0.0 0.00 0.25 0.25 69 1014.8
20260906031610 25 0 0.0 0.0 0.00 0.25 0.25 69 1014.8
20260906031045 25 0 0.0 0.0 0.00 0.25 0.25 71 1014.8
20260906030546 26 0 0.0 0.0 0.00 0.25 0.25 69 1014.7
20260906030110 26 0 0.0 0.0 0.00 0.25 0.25 68 1014.6
20260906025546 26 0 0.0 1.6 0.00 0.25 0.25 64 1014.4
20260906025046 26 0 0.0 1.6 0.00 0.25 0.25 64 1014.4
20260906024601 26 0 0.0 1.6 0.00 0.25 0.25 64 1014.4
20260906024047 26 0 0.0 1.6 0.00 0.25 0.25 65 1014.3
20260906023548 26 0 0.0 0.0 0.00 0.25 0.25 66 1014.3
20260906023127 26 0 0.0 1.6 0.00 0.25 0.25 66 1014.3
20260906022547 26 0 0.0 1.6 0.00 0.25 0.25 66 1014.3
20260906022043 26 0 0.0 1.6 0.00 0.25 0.25 66 1014.3
20260906021605 26 0 0.0 1.6 0.00 0.25 0.25 66 1014.3
20260906021043 26 0 0.0 1.6 0.00 0.25 0.25 66 1014.2
20260906020543 26 0 0.0 1.6 0.00 0.25 0.25 67 1014.0
20260906020108 26 0 0.0 0.0 0.00 0.25 0.25 67 1014.0
20260906015545 26 0 0.0 0.0 0.00 0.25 0.25 67 1013.9
20260906015044 26 0 0.0 0.0 0.00 0.25 0.25 69 1014.0
20260906014626 26 0 0.0 1.6 0.00 0.25 0.25 68 1013.9
20260906014043 26 0 0.0 1.6 0.00 0.25 0.25 69 1013.8
20260906013547 26 0 0.0 1.6 0.00 0.25 0.25 69 1013.8
20260906013108 26 0 0.0 1.6 0.00 0.25 0.25 69 1013.8
20260906012543 26 0 0.0 1.6 0.00 0.25 0.25 70 1013.8
20260906012044 26 146 0.0 1.6 0.00 0.25 0.25 69 1013.8
20260906011559 26 0 0.0 0.0 0.00 0.25 0.25 69 1013.7
20260906011044 27 0 0.0 1.6 0.00 0.25 0.25 68 1013.6
20260906010544 27 0 0.0 1.6 0.00 0.25 0.25 67 1013.8
20260906010107 27 0 0.0 1.6 0.00 0.25 0.25 66 1013.8
20260906005544 27 0 0.0 1.6 0.00 0.25 0.25 66 1013.8
20260906005043 27 179 0.0 3.2 0.00 0.25 0.25 65 1013.8
20260906004614 28 136 0.0 8.0 0.00 0.25 0.25 65 1013.8
20260906004043 28 27 0.0 8.0 0.00 0.25 0.25 66 1013.8
20260906003547 28 10 1.6 3.2 0.00 0.25 0.25 68 1014.0
20260906003059 28 0 0.0 3.2 0.00 0.25 0.25 67 1014.2
20260906002543 28 0 0.0 6.4 0.00 0.25 0.25 66 1014.2
20260906002045 28 217 0.0 16.1 0.00 0.25 0.25 67 1014.2
20260906001604 29 0 4.8 16.1 0.00 0.25 0.25 66 1014.3
20260906001045 29 161 1.6 9.7 0.00 0.25 0.25 65 1014.3
20260906000544 29 34 1.6 8.0 0.03 0.25 0.25 69 1014.2
20260906000109 29 0 0.0 3.2 0.05 0.25 0.25 66 1013.8
20260905235544 28 0 0.0 3.2 0.15 0.25 0.25 74 1013.7
20260905235043 28 252 0.0 0.0 0.25 0.25 0.25 73 1013.7
20260905234604 27 0 0.0 1.6 0.25 0.25 0.25 71 1013.5
20260905234044 27 0 0.0 1.6 0.25 0.25 0.25 76 1013.5
20260905233544 27 0 0.0 1.6 0.25 0.25 0.25 79 1013.4
20260905233109 26 0 0.0 1.6 0.25 0.25 0.25 80 1013.5
20260905232545 27 0 0.0 1.6 0.25 0.25 0.25 78 1013.5
20260905232046 26 150 0.0 3.2 0.25 0.25 0.25 71 1013.5
20260905231602 26 0 0.0 11.3 0.25 0.25 0.25 72 1013.7
20260905231356 26 318 1.6 24.1 0.25 0.25 0.25 66 1013.8
20260905230543 27 38 11.3 33.8 0.23 0.23 0.23 58 1013.9
20260905230110 28 45 19.3 38.6 0.20 0.20 0.20 60 1013.8
20260905225543 29 15 24.1 38.6 0.10 0.10 0.10 57 1013.8
20260905225043 34 38 11.3 22.5 0.00 0.00 0.00 50 1013.9
20260905224608 36 28 6.4 17.7 0.00 0.00 0.00 40 1013.6
20260905224042 36 328 3.2 6.4 0.00 0.00 0.00 38 1013.4
20260905223541 36 49 0.0 6.4 0.00 0.00 0.00 40 1013.3
20260905223107 36 338 0.0 6.4 0.00 0.00 0.00 38 1013.2
20260905222542 36 5 3.2 6.4 0.00 0.00 0.00 38 1013.3
20260905222044 36 85 0.0 4.8 0.00 0.00 0.00 38 1013.3
20260905221606 36 0 0.0 4.8 0.00 0.00 0.00 38 1013.3
20260905221042 36 281 1.6 4.8 0.00 0.00 0.00 37 1013.2
20260905220541 37 273 0.0 6.4 0.00 0.00 0.00 38 1013.3
20260905220123 36 286 0.0 8.0 0.00 0.00 0.00 38 1013.3
20260905215542 36 15 3.2 11.3 0.00 0.00 0.00 37 1013.4
20260905215042 37 12 3.2 11.3 0.00 0.00 0.00 36 1013.4
20260905214606 37 275 1.6 11.3 0.00 0.00 0.00 36 1013.4
20260905214043 37 0 1.6 8.0 0.00 0.00 0.00 36 1013.4
20260905213542 37 139 1.6 9.7 0.00 0.00 0.00 36 1013.3
20260905213108 37 271 3.2 9.7 0.00 0.00 0.00 36 1013.3
20260905212545 37 230 1.6 9.7 0.00 0.00 0.00 36 1013.4
20260905212041 37 227 1.6 11.3 0.00 0.00 0.00 35 1013.5
20260905211610 37 269 3.2 11.3 0.00 0.00 0.00 35 1013.5
20260905211042 38 272 0.0 8.0 0.00 0.00 0.00 35 1013.6
20260905210544 38 0 1.6 8.0 0.00 0.00 0.00 37 1013.6
20260905205545 37 141 0.0 3.2 0.00 0.00 0.00 39 1013.8
20260905205042 37 0 1.6 4.8 0.00 0.00 0.00 36 1013.9
20260905204607 37 192 1.6 4.8 0.00 0.00 0.00 37 1014.0
20260905204041 37 325 1.6 4.8 0.00 0.00 0.00 38 1014.0
20260905203542 36 147 1.6 4.8 0.00 0.00 0.00 36 1014.1
20260905203103 36 135 0.0 3.2 0.00 0.00 0.00 37 1014.2
20260905202544 36 302 0.0 3.2 0.00 0.00 0.00 37 1014.2
20260905202042 37 227 0.0 8.0 0.00 0.00 0.00 37 1014.3
20260905201601 36 324 1.6 8.0 0.00 0.00 0.00 41 1014.3
20260905201043 36 322 3.2 8.0 0.00 0.00 0.00 39 1014.4
20260905200543 36 17 3.2 8.0 0.00 0.00 0.00 40 1014.6
20260905200101 37 0 0.0 6.4 0.00 0.00 0.00 39 1014.6
20260905195543 36 0 0.0 6.4 0.00 0.00 0.00 40 1014.6
20260905195043 36 0 4.8 8.0 0.00 0.00 0.00 39 1014.7
20260905194604 36 321 1.6 8.0 0.00 0.00 0.00 39 1014.8
20260905194044 36 136 1.6 8.0 0.00 0.00 0.00 39 1014.9
20260905193543 36 24 3.2 11.3 0.00 0.00 0.00 40 1014.9
20260905193059 36 292 3.2 11.3 0.00 0.00 0.00 41 1015.0
20260905192544 36 216 3.2 6.4 0.00 0.00 0.00 41 1015.0
20260905192043 36 0 1.6 11.3 0.00 0.00 0.00 41 1015.1
20260905191600 35 15 1.6 11.3 0.00 0.00 0.00 41 1015.3
20260905191043 35 350 1.6 4.8 0.00 0.00 0.00 43 1015.4
20260905190544 35 320 1.6 6.4 0.00 0.00 0.00 43 1015.4
20260905185544 34 338 0.0 12.9 0.00 0.00 0.00 46 1015.8
20260905185044 34 304 0.0 12.9 0.00 0.00 0.00 45 1015.8
20260905184608 35 12 3.2 12.9 0.00 0.00 0.00 44 1015.8
20260905184044 35 27 3.2 17.7 0.00 0.00 0.00 44 1015.9
20260905183545 36 311 6.4 17.7 0.00 0.00 0.00 45 1016.0
20260905183124 36 0 4.8 12.9 0.00 0.00 0.00 42 1016.0
20260905182543 36 271 1.6 9.7 0.00 0.00 0.00 44 1016.1
20260905182044 36 246 1.6 9.7 0.00 0.00 0.00 44 1016.0
20260905181604 36 254 1.6 9.7 0.00 0.00 0.00 44 1016.2
20260905181044 36 134 0.0 6.4 0.00 0.00 0.00 43 1016.2
20260905180544 35 142 1.6 14.5 0.00 0.00 0.00 44 1016.3
20260905180058 35 92 1.6 14.5 0.00 0.00 0.00 46 1016.4
20260905175544 35 348 6.4 14.5 0.00 0.00 0.00 46 1016.4
20260905175045 35 32 4.8 12.9 0.00 0.00 0.00 44 1016.5
20260905174605 35 279 3.2 12.9 0.00 0.00 0.00 46 1016.6
20260905174044 35 312 1.6 11.3 0.00 0.00 0.00 46 1016.7
20260905173544 35 292 3.2 12.9 0.00 0.00 0.00 47 1016.8
20260905173100 34 304 1.6 12.9 0.00 0.00 0.00 49 1016.8
20260905172546 34 316 4.8 12.9 0.00 0.00 0.00 47 1016.9
20260905172044 34 288 1.6 14.5 0.00 0.00 0.00 49 1017.0
20260905171604 34 264 4.8 20.9 0.00 0.00 0.00 50 1017.0
20260905171042 34 281 6.4 20.9 0.00 0.00 0.00 49 1017.0
20260905170543 34 244 1.6 14.5 0.00 0.00 0.00 52 1017.1
20260905170104 33 336 3.2 14.5 0.00 0.00 0.00 50 1017.2
20260905165542 33 321 3.2 14.5 0.00 0.00 0.00 51 1017.3